SCP
0 0 0 0 0 0 0 0 0 0 0 0 0 0 0 0 0 0 0 0 0 0 0 0 0 0 0 0 0 0 0 0 0 0 0 0 0 0 0 0 0 0 0
0 0 0 0 0 0 0 0 0 0 0 0 0 0 0 0 0 0 0 0 0 0 0 0 0 0 0 0 0 0 0 0 0 0 0 0 0 0 0 0 0 0 0
0 0 0 0 0 0 0 0 0 0 0 0 0 0 0 0 0 0 0 0 0 0 0 0 0 0 0 0 0 0 0 0 0 0 0 0 0 0 0 0 0 0 0
0 0 0 0 0 0 0 0 0 0 0 0 0 0 0 0 0 0 0 0 0 0 0 0 0 0 0 0 0 0 0 0 0 0 0 0 0 0 0 0 0 0 0
0 0 0 0 0 0 0 0 0 0 0 0 0 0 0 0 0 0 0 0 0 0 0 0 0 0 0 0 0 0 0 0 0 0 0 0 0 0 0 0 0 0 0
0 0 0 0 0 0 0 0 0 0 0 0 0 0 0 0 0 0 0 0 0 0 0 0 0 0 0 0 0 0 0 0 0 0 0 0 0 0 0 0 0 0 0
0 0 0 0 0 0 0 0 0 0 0 0 0 0 0 0 0 0 0 0 0 0 0 0 0 0 0 0 0 0 0 0 0 0 0 0 0 0 0 0 0 0 0
0 0 0 0 0 0 0 0 0 0 0 0 0 0 0 0 0 0 0 0 0 0 0 0 0 0 0 0 0 0 0 0 0 0 0 0 0 0 0 0 0 0 0
0 0 0 0 0 0 0 0 0 0 0 0 0 0 0 0 0 0 0 0 0 0 0 0 0 0 0 0 0 0 0 0 0 0 0 0 0 0 0 0 0 0 0
0 0 0 0 0 0 0 0 0 0 0 0 0 0 0 0 0 0 0 0 0 0 0 0 0 0 0 0 0 0 0 0 0 0 0 0 0 0 0 0 0 0 0
0 0 0 0 0 0 0 0 0 0 0 0 0 0 0 0 0 0 0 0 0 0 0 0 0 0 0 0 0 0 0 0 0 0 0 0 0 0 0 0 0 0 0
0 0 0 0 0 0 0 0 0 0 0 0 0 0 0 0 0 0 0 0 0 0 0 0 0 0 0 0 0 0 0 0 0 0 0 0 0 0 0 0 0 0 0
0 0 0 0 0 0 0 0 0 0 0 0 0 0 0 0 0 0 0 0 0 0 0 0 0 0 0 0 0 0 0 0 0 0 0 0 0 0 0 0 0 0 0
0 0 0 0 0 0 0 0 0 0 0 0 0 0 0 0 0 0 0 0 0 0 0 0 0 0 0 0 0 0 0 0 0 0 0 0 0 0 0 0 0 0 0
0 0 0 0 0 0 0 0 0 0 0 0 0 0 0 0 0 0 0 0 0 0 0 0 0 0 0 0 0 0 0 0 0 0 0 0 0 0 0 0 0 0 0
0 0 0 0 0 0 0 0 0 0 0 0 0 0 0 0 0 0 0 0 0 0 0 0 0 0 0 0 0 0 0 0 0 0 0 0 0 0 0 0 0 0 0
0 0 0 0 0 0 0 0 0 0 0 0 0 0 0 0 0 0 0 0 0 0 0 0 0 0 0 0 0 0 0 0 0 0 0 0 0 0 0 0 0 0 0
0 0 0 0 0 0 0 0 0 0 0 0 0 0 0 0 0 0 0 0 0 0 0 0 0 0 0 0 0 0 0 0 0 0 0 0 0 0 0 0 0 0 0
0 0 0 0 0 0 0 0 0 0 0 0 0 0 0 0 0 0 0 0 0 0 0 0 0 0 0 0 0 0 0 0 0 0 0 0 0 0 0 0 0 0 0
0 0 0 0 0 0 0 0 0 0 0 0 0 0 0 0 0 0 0 0 0 0 0 0 0 0 0 0 0 0 0 0 0 0 0 0 0 0 0 0 0 0 0
0 0 0 0 0 0 0 0 0 0 0 0 0 0 0 0 0 0 0 0 0 0 0 0 0 0 0 0 0 0 0 0 0 0 0 0 0 0 0 0 0 0 0
0 0 0 0 0 0 0 0 0 0 0 0 0 0 0 0 0 0 0 0 0 0 0 0 0 0 0 0 0 0 0 0 0 0 0 0 0 0 0 0 0 0 0
0 0 0 0 0 0 0 0 0 0 0 0 0 0 0 0 0 0 0 0 0 0 0 0 0 0 0 0 0 0 0 0 0 0 0 0 0 0 0 0 0 0 0
0 0 0 0 0 0 0 0 0 0 0 0 0 0 0 0 0 0 0 0 0 0 0 0 0 0 0 0 0 0 0 0 0 0 0 0 0 0 0 0 0 0 0
0 0 0 0 0 0 0 0 0 0 0 0 0 0 0 0 0 0 0 0 0 0 0 0 0 0 0 0 0 0 0 0 0 0 0 0 0 0 0 0 0 0 0
0 0 0 0 0 0 0 0 0 0 0 0 0 0 0 0 0 0 0 0 0 0 0 0 0 0 0 0 0 0 0 0 0 0 0 0 0 0 0 0 0 0 0
Wind_Speed_500mb
20 20 20 19 18 18 16 15 14 14 14 15 17 15 12 8 7 5 5 5 6 6 5 5 6 11 8 3 5 11 17 18 17 18 19 20 21 23 25 27 30 34 36
22 21 21 21 21 20 20 18 16 16 17 18 18 17 14 13 11 11 9 8 8 7 8 5 4 5 4 4 6 17 17 18 19 20 21 24 27 27 28 30 31 32 33
25 24 23 23 22 21 21 21 21 20 19 19 19 18 16 14 14 16 14 13 13 11 12 11 6 4 9 12 19 15 16 18 20 22 23 25 25 26 27 27 29 31 34
30 28 26 24 24 25 24 24 24 23 23 22 22 20 19 18 19 19 18 18 16 15 17 16 15 16 17 14 11 11 14 18 20 21 20 21 22 22 23 27 30 34 39
37 36 32 29 30 30 29 28 28 28 28 28 28 27 24 22 23 24 21 21 20 18 19 21 18 18 14 10 10 10 16 17 15 16 16 16 18 22 26 30 35 39 40
45 44 41 38 38 37 35 35 34 34 34 31 30 27 25 26 28 29 27 25 24 21 21 24 20 17 13 11 7 12 14 14 12 11 12 15 19 23 28 32 35 38 40
53 51 49 47 47 46 41 39 37 39 39 37 34 31 30 30 29 33 40 31 27 24 25 17 18 17 14 10 10 13 9 8 7 9 12 16 21 25 29 32 34 36 38
58 58 56 55 55 53 48 46 46 42 37 41 41 35 30 31 34 38 34 32 30 28 26 24 25 19 15 13 13 10 7 4 5 8 12 16 20 25 27 30 33 34 37
65 64 62 60 60 60 57 52 52 50 46 40 47 38 19 22 30 37 44 50 41 34 23 25 26 22 20 17 15 10 6 3 4 6 10 16 19 23 26 28 30 34 35
72 70 70 66 64 64 65 59 54 54 52 50 54 54 51 21 23 20 46 41 45 34 30 25 31 27 24 20 17 13 8 4 3 8 12 15 19 22 24 28 30 33 37
78 76 76 73 71 69 68 64 59 60 57 50 56 60 59 61 42 33 43 52 52 47 42 33 37 34 30 25 21 17 12 7 4 7 12 17 20 22 24 26 30 34 36
79 81 81 80 77 76 74 71 66 64 65 63 60 63 63 66 64 59 55 59 67 63 54 44 38 40 35 30 25 19 14 8 6 9 12 16 20 24 27 29 32 34 37
80 81 83 84 84 81 79 77 78 74 71 74 74 73 73 72 70 71 76 62 61 63 60 51 46 48 41 32 30 23 17 12 10 11 14 18 20 24 28 32 32 34 37
84 82 82 83 85 86 85 84 85 84 80 79 80 82 82 78 78 84 81 71 56 65 66 55 52 53 46 39 33 26 19 15 14 14 15 19 22 24 29 32 33 35 36
90 89 87 85 82 85 88 90 91 95 91 87 88 85 86 84 86 83 74 72 69 62 69 64 62 57 51 43 36 29 24 21 20 18 17 20 22 26 29 32 34 34 36
97 97 94 92 90 86 84 89 95 97 102 99 96 94 89 86 83 80 77 73 71 67 58 63 63 60 52 45 38 33 30 25 25 21 21 23 23 27 30 32 35 35 37
100 101 100 97 94 90 87 88 92 96 102 108 107 103 96 87 79 81 82 82 73 69 64 64 59 57 51 45 41 36 33 30 29 24 25 25 25 29 31 33 36 36 37
90 90 89 91 90 91 90 89 91 88 93 100 105 113 108 96 90 90 86 82 75 70 68 66 59 55 56 48 43 40 36 34 32 29 28 27 27 31 32 34 36 37 37
89 87 83 84 86 89 90 91 92 90 96 98 95 102 115 109 107 103 88 88 78 74 67 65 62 57 56 56 52 45 42 39 36 33 31 30 29 31 32 34 37 38 38
73 79 79 77 78 79 84 86 83 87 93 96 93 100 94 119 106 110 90 87 82 76 70 64 60 56 58 57 53 49 48 43 41 35 34 33 30 31 32 33 37 38 38
53 62 71 78 81 81 82 77 77 81 84 84 93 89 80 103 104 112 106 87 89 78 73 67 65 63 62 61 56 53 52 47 43 36 36 34 32 32 32 31 38 41 38
47 51 56 62 74 77 75 76 73 77 81 81 87 87 91 110 110 90 97 98 70 70 68 67 65 66 62 57 49 52 50 48 42 39 36 34 34 33 31 32 40 44 38
48 51 53 56 59 64 71 72 69 71 76 82 84 85 96 99 97 99 96 70 68 55 60 59 57 58 52 47 45 44 53 46 43 39 38 37 37 34 31 34 42 41 35
49 50 50 52 57 54 54 58 61 70 74 75 85 74 73 88 91 68 65 74 58 59 56 54 50 48 45 38 36 49 41 45 43 47 44 43 39 37 34 37 41 39 35
44 42 42 42 47 49 54 54 56 57 56 57 56 63 62 75 70 78 78 63 57 65 61 53 46 43 35 37 49 46 52 47 47 50 46 43 43 41 39 38 37 36 38
43 36 33 35 36 34 37 43 50 52 54 55 53 60 59 55 51 45 49 46 63 57 57 49 42 37 39 38 52 49 51 47 54 49 44 43 42 42 41 38 31 38 38
Wind_Direction_500mb
190 193 193 196 201 204 202 197 195 194 199 199 200 204 208 204 206 248 285 329 335 344 348 42 41 38 52 72 238 297 331 349 11 21 19 11 9 5 357 355 354 356 359
206 207 207 209 212 213 213 211 211 209 211 210 210 211 214 223 231 249 273 299 297 298 303 309 4 58 358 306 314 333 5 24 24 19 8 1 359 2 4 7 6 7 9
221 221 220 220 219 222 223 222 223 223 223 221 219 223 226 235 250 255 273 283 283 286 288 304 299 153 204 279 317 351 15 16 8 4 5 4 6 10 14 17 18 17 16
230 233 232 233 232 233 232 232 232 234 233 232 229 231 233 235 238 247 261 270 268 273 284 289 290 291 290 295 322 351 1 1 2 3 12 15 17 18 24 27 25 24 24
235 239 240 240 240 242 242 241 241 240 238 238 236 235 236 241 245 255 258 264 257 266 279 289 295 295 294 298 329 343 350 356 8 15 18 25 29 29 30 30 29 29 26
239 241 243 240 242 244 244 244 245 246 245 244 241 239 236 243 247 252 241 254 255 262 275 286 293 295 284 294 314 336 345 356 9 23 32 36 37 36 33 33 32 29 24
241 243 243 245 245 248 250 251 249 249 250 245 241 238 239 245 249 243 244 244 247 257 284 292 296 283 274 282 311 323 339 357 12 36 42 40 37 32 30 30 29 26 21
243 245 246 247 247 249 247 245 245 253 251 246 235 240 249 239 245 240 236 255 259 266 278 294 297 287 278 282 303 312 320 351 25 40 38 36 36 34 29 26 24 21 17
246 247 249 249 250 251 251 248 249 251 247 248 239 237 230 236 232 235 229 225 234 251 265 292 293 285 274 282 300 294 288 293 15 17 29 33 31 28 23 20 17 15 14
249 250 251 251 252 252 252 250 250 252 250 251 240 237 238 248 219 216 219 228 247 223 246 271 283 277 269 274 279 256 245 255 335 2 16 20 19 18 15 10 10 9 6
252 255 254 253 252 253 253 251 248 247 245 242 235 235 237 238 234 228 215 227 227 235 236 240 263 268 264 265 265 247 236 247 309 346 355 4 2 1 1 3 2 1 1
254 255 256 255 255 253 252 251 248 246 245 241 239 239 237 239 240 233 238 231 227 227 228 242 251 260 261 260 257 245 244 256 297 326 342 348 352 346 350 354 354 353 351
258 256 254 256 256 255 253 251 247 245 244 242 242 243 246 248 253 255 250 244 219 223 225 235 243 258 253 249 249 238 237 250 281 305 325 332 340 338 342 342 344 344 346
267 267 264 261 261 261 259 255 250 248 247 245 245 245 247 248 251 252 258 248 230 224 227 239 249 249 247 242 237 234 239 249 268 290 306 317 325 331 333 332 334 338 340
271 270 270 269 265 263 262 261 257 252 249 247 246 247 247 248 248 253 254 253 249 226 229 238 239 246 238 236 232 229 237 245 258 271 292 303 313 320 322 325 329 331 335
273 274 274 274 274 270 265 263 261 258 253 250 247 247 248 250 250 250 248 250 250 240 239 243 240 242 234 229 226 227 235 241 257 270 281 291 299 308 314 320 323 326 330
271 274 275 276 276 277 274 268 264 263 260 255 251 249 249 250 244 243 245 246 245 234 234 238 238 231 225 221 222 228 236 244 255 265 273 283 288 303 312 316 318 322 325
268 269 270 272 273 272 272 273 267 265 265 265 260 255 251 248 239 241 242 244 240 233 235 234 227 222 221 221 223 228 232 242 249 261 267 272 283 300 311 314 317 319 321
264 265 267 267 269 271 271 271 267 263 270 263 264 261 255 247 242 239 239 238 229 227 232 231 226 223 222 219 222 226 231 239 246 254 261 266 280 299 309 314 314 318 317
266 264 263 263 267 272 272 272 272 271 271 268 268 264 268 249 248 245 242 235 231 225 227 223 225 226 221 218 222 227 230 235 242 247 258 263 283 297 308 314 312 313 312
272 269 265 259 260 263 268 272 275 274 274 276 272 271 266 268 244 247 250 226 229 225 221 219 221 218 216 217 221 227 229 234 239 246 255 263 282 295 302 307 309 311 308
275 273 272 270 263 262 266 269 270 273 275 276 277 279 264 261 251 246 244 238 234 225 221 221 221 220 215 219 220 227 234 233 238 246 254 263 277 288 294 302 308 309 302
280 277 275 274 271 266 262 265 265 267 271 272 273 272 275 262 242 248 236 222 223 220 228 235 228 220 217 219 230 248 235 237 242 252 258 263 275 282 286 296 306 305 297
280 281 280 278 275 271 261 260 261 272 270 272 274 272 272 265 257 244 226 237 218 221 225 218 209 216 214 218 238 243 240 242 248 256 261 268 273 282 283 291 300 298 290
282 281 283 285 280 272 264 259 263 269 279 280 281 281 272 263 249 228 224 216 211 217 220 216 216 215 208 241 242 241 251 243 255 256 262 267 274 279 281 290 292 291 294
286 288 296 302 303 299 282 273 264 267 271 274 279 274 265 245 233 232 224 213 220 228 218 210 211 211 248 232 242 248 248 259 255 260 266 263 273 281 291 288 285 292 291
Wind_Speed_850mb
20 20 20 19 18 18 16 15 14 14 14 15 17 15 12 8 7 5 5 5 6 6 5 5 6 11 8 3 5 11 17 18 17 18 19 20 21 23 25 27 30 34 36
22 21 21 21 21 20 20 18 16 16 17 18 18 17 14 13 11 11 9 8 8 7 8 5 4 5 4 4 6 17 17 18 19 20 21 24 27 27 28 30 31 32 33
25 24 23 23 22 21 21 21 21 20 19 19 19 18 16 14 14 16 14 13 13 11 12 11 6 4 9 12 19 15 16 18 20 22 23 25 25 26 27 27 29 31 34
30 28 26 24 24 25 24 24 24 23 23 22 22 20 19 18 19 19 18 18 16 15 17 16 15 16 17 14 11 11 14 18 20 21 20 21 22 22 23 27 30 34 39
37 36 32 29 30 30 29 28 28 28 28 28 28 27 24 22 23 24 21 21 20 18 19 21 18 18 14 10 10 10 16 17 15 16 16 16 18 22 26 30 35 39 40
45 44 41 38 38 37 35 35 34 34 34 31 30 27 25 26 28 29 27 25 24 21 21 24 20 17 13 11 7 12 14 14 12 11 12 15 19 23 28 32 35 38 40
53 51 49 47 47 46 41 39 37 39 39 37 34 31 30 30 29 33 40 31 27 24 25 17 18 17 14 10 10 13 9 8 7 9 12 16 21 25 29 32 34 36 38
58 58 56 55 55 53 48 46 46 42 37 41 41 35 30 31 34 38 34 32 30 28 26 24 25 19 15 13 13 10 7 4 5 8 12 16 20 25 27 30 33 34 37
65 64 62 60 60 60 57 52 52 50 46 40 47 38 19 22 30 37 44 50 41 34 23 25 26 22 20 17 15 10 6 3 4 6 10 16 19 23 26 28 30 34 35
72 70 70 66 64 64 65 59 54 54 52 50 54 54 51 21 23 20 46 41 45 34 30 25 31 27 24 20 17 13 8 4 3 8 12 15 19 22 24 28 30 33 37
78 76 76 73 71 69 68 64 59 60 57 50 56 60 59 61 42 33 43 52 52 47 42 33 37 34 30 25 21 17 12 7 4 7 12 17 20 22 24 26 30 34 36
79 81 81 80 77 76 74 71 66 64 65 63 60 63 63 66 64 59 55 59 67 63 54 44 38 40 35 30 25 19 14 8 6 9 12 16 20 24 27 29 32 34 37
80 81 83 84 84 81 79 77 78 74 71 74 74 73 73 72 70 71 76 62 61 63 60 51 46 48 41 32 30 23 17 12 10 11 14 18 20 24 28 32 32 34 37
84 82 82 83 85 86 85 84 85 84 80 79 80 82 82 78 78 84 81 71 56 65 66 55 52 53 46 39 33 26 19 15 14 14 15 19 22 24 29 32 33 35 36
90 89 87 85 82 85 88 90 91 95 91 87 88 85 86 84 86 83 74 72 69 62 69 64 62 57 51 43 36 29 24 21 20 18 17 20 22 26 29 32 34 34 36
97 97 94 92 90 86 84 89 95 97 102 99 96 94 89 86 83 80 77 73 71 67 58 63 63 60 52 45 38 33 30 25 25 21 21 23 23 27 30 32 35 35 37
100 101 100 97 94 90 87 88 92 96 102 108 107 103 96 87 79 81 82 82 73 69 64 64 59 57 51 45 41 36 33 30 29 24 25 25 25 29 31 33 36 36 37
90 90 89 91 90 91 90 89 91 88 93 100 105 113 108 96 90 90 86 82 75 70 68 66 59 55 56 48 43 40 36 34 32 29 28 27 27 31 32 34 36 37 37
89 87 83 84 86 89 90 91 92 90 96 98 95 102 115 109 107 103 88 88 78 74 67 65 62 57 56 56 52 45 42 39 36 33 31 30 29 31 32 34 37 38 38
73 79 79 77 78 79 84 86 83 87 93 96 93 100 94 119 106 110 90 87 82 76 70 64 60 56 58 57 53 49 48 43 41 35 34 33 30 31 32 33 37 38 38
53 62 71 78 81 81 82 77 77 81 84 84 93 89 80 103 104 112 106 87 89 78 73 67 65 63 62 61 56 53 52 47 43 36 36 34 32 32 32 31 38 41 38
47 51 56 62 74 77 75 76 73 77 81 81 87 87 91 110 110 90 97 98 70 70 68 67 65 66 62 57 49 52 50 48 42 39 36 34 34 33 31 32 40 44 38
48 51 53 56 59 64 71 72 69 71 76 82 84 85 96 99 97 99 96 70 68 55 60 59 57 58 52 47 45 44 53 46 43 39 38 37 37 34 31 34 42 41 35
49 50 50 52 57 54 54 58 61 70 74 75 85 74 73 88 91 68 65 74 58 59 56 54 50 48 45 38 36 49 41 45 43 47 44 43 39 37 34 37 41 39 35
44 42 42 42 47 49 54 54 56 57 56 57 56 63 62 75 70 78 78 63 57 65 61 53 46 43 35 37 49 46 52 47 47 50 46 43 43 41 39 38 37 36 38
43 36 33 35 36 34 37 43 50 52 54 55 53 60 59 55 51 45 49 46 63 57 57 49 42 37 39 38 52 49 51 47 54 49 44 43 42 42 41 38 31 38 38
Wind_Direction_850mb
190 193 193 196 201 204 202 197 195 194 199 199 200 204 208 204 206 248 285 329 335 344 348 42 41 38 52 72 238 297 331 349 11 21 19 11 9 5 357 355 354 356 359
206 207 207 209 212 213 213 211 211 209 211 210 210 211 214 223 231 249 273 299 297 298 303 309 4 58 358 306 314 333 5 24 24 19 8 1 359 2 4 7 6 7 9
221 221 220 220 219 222 223 222 223 223 223 221 219 223 226 235 250 255 273 283 283 286 288 304 299 153 204 279 317 351 15 16 8 4 5 4 6 10 14 17 18 17 16
230 233 232 233 232 233 232 232 232 234 233 232 229 231 233 235 238 247 261 270 268 273 284 289 290 291 290 295 322 351 1 1 2 3 12 15 17 18 24 27 25 24 24
235 239 240 240 240 242 242 241 241 240 238 238 236 235 236 241 245 255 258 264 257 266 279 289 295 295 294 298 329 343 350 356 8 15 18 25 29 29 30 30 29 29 26
239 241 243 240 242 244 244 244 245 246 245 244 241 239 236 243 247 252 241 254 255 262 275 286 293 295 284 294 314 336 345 356 9 23 32 36 37 36 33 33 32 29 24
241 243 243 245 245 248 250 251 249 249 250 245 241 238 239 245 249 243 244 244 247 257 284 292 296 283 274 282 311 323 339 357 12 36 42 40 37 32 30 30 29 26 21
243 245 246 247 247 249 247 245 245 253 251 246 235 240 249 239 245 240 236 255 259 266 278 294 297 287 278 282 303 312 320 351 25 40 38 36 36 34 29 26 24 21 17
246 247 249 249 250 251 251 248 249 251 247 248 239 237 230 236 232 235 229 225 234 251 265 292 293 285 274 282 300 294 288 293 15 17 29 33 31 28 23 20 17 15 14
249 250 251 251 252 252 252 250 250 252 250 251 240 237 238 248 219 216 219 228 247 223 246 271 283 277 269 274 279 256 245 255 335 2 16 20 19 18 15 10 10 9 6
252 255 254 253 252 253 253 251 248 247 245 242 235 235 237 238 234 228 215 227 227 235 236 240 263 268 264 265 265 247 236 247 309 346 355 4 2 1 1 3 2 1 1
254 255 256 255 255 253 252 251 248 246 245 241 239 239 237 239 240 233 238 231 227 227 228 242 251 260 261 260 257 245 244 256 297 326 342 348 352 346 350 354 354 353 351
258 256 254 256 256 255 253 251 247 245 244 242 242 243 246 248 253 255 250 244 219 223 225 235 243 258 253 249 249 238 237 250 281 305 325 332 340 338 342 342 344 344 346
267 267 264 261 261 261 259 255 250 248 247 245 245 245 247 248 251 252 258 248 230 224 227 239 249 249 247 242 237 234 239 249 268 290 306 317 325 331 333 332 334 338 340
271 270 270 269 265 263 262 261 257 252 249 247 246 247 247 248 248 253 254 253 249 226 229 238 239 246 238 236 232 229 237 245 258 271 292 303 313 320 322 325 329 331 335
273 274 274 274 274 270 265 263 261 258 253 250 247 247 248 250 250 250 248 250 250 240 239 243 240 242 234 229 226 227 235 241 257 270 281 291 299 308 314 320 323 326 330
271 274 275 276 276 277 274 268 264 263 260 255 251 249 249 250 244 243 245 246 245 234 234 238 238 231 225 221 222 228 236 244 255 265 273 283 288 303 312 316 318 322 325
268 269 270 272 273 272 272 273 267 265 265 265 260 255 251 248 239 241 242 244 240 233 235 234 227 222 221 221 223 228 232 242 249 261 267 272 283 300 311 314 317 319 321
264 265 267 267 269 271 271 271 267 263 270 263 264 261 255 247 242 239 239 238 229 227 232 231 226 223 222 219 222 226 231 239 246 254 261 266 280 299 309 314 314 318 317
266 264 263 263 267 272 272 272 272 271 271 268 268 264 268 249 248 245 242 235 231 225 227 223 225 226 221 218 222 227 230 235 242 247 258 263 283 297 308 314 312 313 312
272 269 265 259 260 263 268 272 275 274 274 276 272 271 266 268 244 247 250 226 229 225 221 219 221 218 216 217 221 227 229 234 239 246 255 263 282 295 302 307 309 311 308
275 273 272 270 263 262 266 269 270 273 275 276 277 279 264 261 251 246 244 238 234 225 221 221 221 220 215 219 220 227 234 233 238 246 254 263 277 288 294 302 308 309 302
280 277 275 274 271 266 262 265 265 267 271 272 273 272 275 262 242 248 236 222 223 220 228 235 228 220 217 219 230 248 235 237 242 252 258 263 275 282 286 296 306 305 297
280 281 280 278 275 271 261 260 261 272 270 272 274 272 272 265 257 244 226 237 218 221 225 218 209 216 214 218 238 243 240 242 248 256 261 268 273 282 283 291 300 298 290
282 281 283 285 280 272 264 259 263 269 279 280 281 281 272 263 249 228 224 216 211 217 220 216 216 215 208 241 242 241 251 243 255 256 262 267 274 279 281 290 292 291 294
286 288 296 302 303 299 282 273 264 267 271 274 279 274 265 245 233 232 224 213 220 228 218 210 211 211 248 232 242 248 248 259 255 260 266 263 273 281 291 288 285 292 291